This demonstration page uses our WeatherBlox Daily Observations layout. Learn more.

Left ArrowRight Arrow

41.12389, -100.76542

Hourly Observations for March 21, 2015

Temp ( °F °C ) Dew Point ( °F °C ) Humidity (%) Winds ( mph kmh ) Pressure ( in mb ) Visibility ( mi km ) Precip ( " mm )
12:53 am 00:53 Clear 37 2.8 24 -4.4 59 59 Calm 30.10 1019 10 16 0.00 0.00
1:53 am 01:53 Clear 39 3.9 23 -5 53 53 E 3 6 30.10 1019 10 16 0.00 0.00
2:53 am 02:53 Clear 34 1.1 24 -4.4 67 67 Calm 30.11 1020 10 16 0.00 0.00
3:53 am 03:53 Clear 32 0 24 -4.4 73 73 S 3 6 30.10 1019 10 16 0.00 0.00
4:53 am 04:53 Clear 32 0 23 -5 69 69 E 5 7 30.08 1019 10 16 0.00 0.00
5:53 am 05:53 Clear 31 -0.6 23 -5 72 72 E 5 7 30.09 1019 10 16 0.00 0.00
6:53 am 06:53 Clear 28 -2.2 23 -5 81 81 E 7 11 30.11 1020 10 16 0.00 0.00
7:53 am 07:53 Sunny 28 -2.2 23 -5 81 81 E 6 9 30.15 1021 10 16 0.00 0.00
8:53 am 08:53 Sunny 37 2.8 29 -1.7 73 73 ESE 9 15 30.15 1021 10 16 0.00 0.00
9:53 am 09:53 Sunny 45 7.2 32 0 61 61 ESE 20 31 30.14 1021 10 16 0.00 0.00
10:53 am 10:53 Sunny 51 10.6 32 0 48 48 ESE 16 26 30.13 1020 10 16 0.00 0.00
11:53 am 11:53 Sunny 56 13.3 33 0.6 42 42 ESE 15 24 30.12 1020 10 16 0.00 0.00
12:53 pm 12:53 Sunny 62 16.7 34 1.1 35 35 ESE 13 20 30.09 1019 10 16 0.00 0.00
1:53 pm 13:53 Sunny 70 21.1 27 -2.8 20 20 SSE 16 26 30.04 1017 10 16 0.00 0.00
2:53 pm 14:53 Sunny 72 22.2 21 -6.1 15 15 SSE 18 30 30.02 1017 10 16 0.00 0.00
3:53 pm 15:53 Sunny 72 22.2 25 -3.9 17 17 S 16 26 30.00 1016 10 16 0.00 0.00
4:53 pm 16:53 Sunny 72 22.2 28 -2.2 19 19 S 15 24 29.97 1015 10 16 0.00 0.00
5:53 pm 17:53 Sunny 73 22.8 30 -1.1 20 20 S 15 24 29.94 1014 10 16 0.00 0.00
6:53 pm 18:53 Sunny 71 21.7 30 -1.1 22 22 S 15 24 29.94 1014 10 16 0.00 0.00
7:53 pm 19:53 Sunny 64 17.8 31 -0.6 29 29 S 8 13 29.96 1014 10 16 0.00 0.00
8:53 pm 20:53 Clear 56 13.3 31 -0.6 39 39 SSE 7 11 29.95 1014 10 16 0.00 0.00
9:53 pm 21:53 Clear 55 12.8 32 0 42 42 SSE 8 13 29.94 1014 10 16 0.00 0.00
10:53 pm 22:53 Clear 59 15 32 0 36 36 SSE 12 19 29.92 1013 10 16 0.00 0.00
11:53 pm 23:53 Clear 56 13.3 31 -0.6 39 39 SSE 9 15 29.91 1013 10 16 0.00 0.00

Powered by AerisWeather